User: anonymous   Login
Location: Unspecified
(0.0000°N, 0.0000°E)
Time: 02:59:07
(UTC+00:00)
Language:

GAOFEN 3 02 - Orbit

View from above orbital plane
View from above orbital plane
View from above satellite
View from above satellite

Ground track
Ground track

The orbit is defined by the following mean orbital elements,

1 49495U          26145.57043926 +.00000000 +00000-0 +28039-4 0 00004
2 49495  98.4097 153.9889 0003911  66.9309 293.2292 14.42213565    02
Epoch (UTC): 25 May 2026 13:41:25
Eccentricity: 0.0003911
inclination: 98.4097°
perigee height: 748 km
apogee height: 754 km
right ascension of ascending node: 153.9889°
argument of perigee: 66.9309°
revolutions per day: 14.42213565
mean anomaly at epoch: 293.2292°

The dashed part of the orbit path shows where the satellite is in the earth's shadow,  

DLR